�������l�o���
Date,Time,MP-1(��Sv/h),MP-2(��Sv/h),MP-3(��Sv/h),MP-4(��Sv/h),MP-5(��Sv/h),MP-6(��Sv/h),MP-7(��Sv/h),MP-8(��Sv/h),����,����(m/s),���J
2015/02/01,00:00,1.582,2.745,2.768,2.738,2.692,0.955,1.653,1.968,���k��,9.4,��
2015/02/01,00:10,1.583,2.747,2.770,2.742,2.690,0.958,1.650,1.968,���k��,11.8,��
2015/02/01,00:20,1.585,2.745,2.770,2.742,2.690,0.958,1.650,1.968,���k��,10.8,��
2015/02/01,00:30,1.585,2.745,2.773,2.742,2.692,0.958,1.650,1.967,���k��,11.6,��
2015/02/01,00:40,1.587,2.747,2.772,2.743,2.695,0.957,1.652,1.970,���k��,9.9,��
2015/02/01,00:50,1.583,2.745,2.770,2.742,2.695,0.958,1.653,1.965,���k��,13.2,��
2015/02/01,01:00,1.583,2.748,2.773,2.743,2.695,0.958,1.652,1.967,���k��,10.5,��
2015/02/01,01:10,1.585,2.748,2.768,2.743,2.700,0.957,1.652,1.970,���k��,10.5,��
2015/02/01,01:20,1.587,2.750,2.772,2.743,2.695,0.957,1.652,1.968,���k��,12.6,��
2015/02/01,01:30,1.588,2.752,2.778,2.745,2.700,0.957,1.652,1.970,���k��,14.9,��
2015/02/01,01:40,1.588,2.752,2.777,2.743,2.702,0.958,1.653,1.970,���k��,13.8,��
2015/02/01,01:50,1.590,2.753,2.782,2.747,2.702,0.958,1.652,1.975,���k��,17.1,��
2015/02/01,02:00,1.588,2.753,2.780,2.748,2.705,0.958,1.653,1.973,���k��,11.8,��
2015/02/01,02:10,1.590,2.752,2.780,2.752,2.703,0.957,1.653,1.972,���k��,14.6,��
2015/02/01,02:20,1.587,2.757,2.782,2.752,2.705,0.960,1.657,1.970,���k��,13.7,��
2015/02/01,02:30,1.588,2.753,2.780,2.750,2.703,0.960,1.653,1.970,���k��,15.5,��
2015/02/01,02:40,1.588,2.757,2.782,2.755,2.705,0.960,1.657,1.973,���k��,8.2,��
2015/02/01,02:50,1.588,2.757,2.785,2.757,2.708,0.960,1.655,1.975,���k��,14.0,��
2015/02/01,03:00,1.592,2.760,2.783,2.752,2.702,0.960,1.655,1.973,���k��,10.2,��
2015/02/01,03:10,1.592,2.762,2.787,2.757,2.707,0.960,1.653,1.975,���k��,12.6,��
2015/02/01,03:20,1.590,2.762,2.788,2.758,2.710,0.960,1.655,1.978,���k��,13.0,��
2015/02/01,03:30,1.593,2.760,2.788,2.757,2.712,0.960,1.657,1.977,���k��,13.8,��
2015/02/01,03:40,1.590,2.760,2.787,2.757,2.708,0.960,1.657,1.975,���k��,15.2,��
2015/02/01,03:50,1.593,2.758,2.788,2.757,2.712,0.960,1.657,1.978,���k��,14.5,��
2015/02/01,04:00,1.592,2.762,2.787,2.760,2.713,0.960,1.655,1.978,���k��,12.3,��
2015/02/01,04:10,1.592,2.760,2.787,2.760,2.717,0.962,1.658,1.978,���k��,13.4,��
2015/02/01,04:20,1.592,2.763,2.790,2.755,2.717,0.962,1.657,1.978,���k��,12.1,��
2015/02/01,04:30,1.593,2.765,2.788,2.758,2.715,0.960,1.660,1.977,���k��,10.7,��
2015/02/01,04:40,1.593,2.763,2.792,2.762,2.717,0.960,1.658,1.978,���k��,10.8,��
2015/02/01,04:50,1.593,2.767,2.795,2.763,2.715,0.960,1.658,1.978,�k��,13.7,��
2015/02/01,05:00,1.593,2.767,2.792,2.767,2.717,0.960,1.658,1.977,�k��,10.2,��
2015/02/01,05:10,1.595,2.765,2.793,2.763,2.718,0.962,1.657,1.978,���k��,11.9,��
2015/02/01,05:20,1.597,2.767,2.792,2.762,2.717,0.960,1.658,1.975,���k��,10.1,��
2015/02/01,05:30,1.595,2.772,2.790,2.763,2.717,0.960,1.657,1.978,���k��,12.4,��
2015/02/01,05:40,1.595,2.768,2.790,2.762,2.717,0.960,1.658,1.982,���k��,13.8,��
2015/02/01,05:50,1.598,2.765,2.792,2.760,2.718,0.960,1.658,1.980,���k��,13.5,��
2015/02/01,06:00,1.595,2.767,2.795,2.762,2.718,0.960,1.660,1.978,���k��,11.0,��
2015/02/01,06:10,1.597,2.765,2.790,2.763,2.718,0.960,1.657,1.978,���k��,8.2,��
2015/02/01,06:20,1.598,2.765,2.793,2.765,2.718,0.958,1.658,1.977,���k��,8.5,��
2015/02/01,06:30,1.595,2.767,2.792,2.767,2.720,0.960,1.660,1.978,���k��,8.5,��
2015/02/01,06:40,1.597,2.768,2.797,2.763,2.718,0.960,1.658,1.980,�k��,7.8,��
2015/02/01,06:50,1.595,2.767,2.793,2.765,2.718,0.958,1.658,1.977,���k��,7.4,��
2015/02/01,07:00,1.595,2.768,2.792,2.767,2.720,0.960,1.660,1.980,�k��,6.3,��
2015/02/01,07:10,1.593,2.767,2.792,2.767,2.722,0.960,1.660,1.977,���k��,5.5,��
2015/02/01,07:20,1.597,2.768,2.788,2.763,2.722,0.958,1.660,1.977,���k��,5.8,��
2015/02/01,07:30,1.595,2.772,2.792,2.767,2.722,0.960,1.660,1.978,���k��,3.8,��
2015/02/01,07:40,1.593,2.770,2.795,2.768,2.718,0.958,1.658,1.977,���k��,3.0,��
2015/02/01,07:50,1.595,2.768,2.795,2.770,2.725,0.960,1.660,1.980,���k��,2.4,��
2015/02/01,08:00,1.598,2.770,2.798,2.768,2.722,0.960,1.662,1.982,���k��,1.4,��
2015/02/01,08:10,1.593,2.772,2.795,2.770,2.723,0.960,1.663,1.978,���k��,1.4,��
2015/02/01,08:20,1.597,2.772,2.795,2.770,2.725,0.962,1.663,1.977,�k��,0.5,��
2015/02/01,08:30,1.597,2.772,2.802,2.768,2.725,0.960,1.662,1.975,���k��,1.9,��
2015/02/01,08:40,1.598,2.772,2.800,2.767,2.723,0.963,1.663,1.975,��,2.9,��
2015/02/01,08:50,1.600,2.773,2.800,2.770,2.723,0.962,1.662,1.980,���k��,7.7,��
2015/02/01,09:00,1.602,2.777,2.802,2.772,2.725,0.962,1.662,1.982,���k��,7.1,��
2015/02/01,09:10,1.598,2.775,2.800,2.772,2.730,0.962,1.662,1.983,���k��,7.7,��
2015/02/01,09:20,1.602,2.777,2.802,2.773,2.732,0.963,1.665,1.980,���k��,9.1,��
2015/02/01,09:30,1.602,2.780,2.805,2.773,2.732,0.963,1.663,1.980,���k��,9.9,��
2015/02/01,09:40,1.602,2.780,2.803,2.772,2.733,0.963,1.665,1.983,���k��,7.8,��
2015/02/01,09:50,1.600,2.783,2.803,2.775,2.733,0.963,1.668,1.985,���k��,10.4,��
2015/02/01,10:00,1.600,2.783,2.805,2.777,2.733,0.968,1.663,1.982,���k��,8.8,��
2015/02/01,10:10,1.603,2.785,2.803,2.778,2.732,0.965,1.665,1.980,���k��,8.5,��
2015/02/01,10:20,1.602,2.785,2.810,2.778,2.735,0.967,1.665,1.987,���k��,10.2,��
2015/02/01,10:30,1.603,2.787,2.807,2.775,2.738,0.965,1.665,1.988,���k��,11.3,��
2015/02/01,10:40,1.602,2.787,2.812,2.780,2.738,0.965,1.667,1.985,���k��,9.7,��
2015/02/01,10:50,1.602,2.788,2.815,2.780,2.738,0.968,1.667,1.985,���k��,8.8,��
2015/02/01,11:00,1.605,2.795,2.815,2.780,2.743,0.968,1.667,1.985,���k��,9.1,��
2015/02/01,11:10,1.603,2.798,2.818,2.782,2.748,0.968,1.667,1.987,�k��,12.1,��
2015/02/01,11:20,1.603,2.802,2.820,2.785,2.750,0.970,1.670,1.987,�k��,9.3,��
2015/02/01,11:30,1.605,2.800,2.818,2.785,2.753,0.968,1.668,1.990,�k��,11.8,��
2015/02/01,11:40,1.607,2.800,2.822,2.785,2.757,0.970,1.670,1.990,�k��,8.5,��
2015/02/01,11:50,1.605,2.805,2.825,2.787,2.757,0.970,1.668,1.992,�k��,11.3,��
2015/02/01,12:00,1.608,2.803,2.828,2.785,2.763,0.970,1.668,1.992,�k��,8.2,��
2015/02/01,12:10,1.607,2.810,2.830,2.788,2.770,0.973,1.670,1.995,�k��,8.8,��
2015/02/01,12:20,1.608,2.810,2.833,2.792,2.772,0.972,1.672,1.997,�k��,9.6,��
2015/02/01,12:30,1.607,2.812,2.838,2.792,2.773,0.972,1.673,1.995,�k��,8.6,��
2015/02/01,12:40,1.608,2.815,2.838,2.795,2.782,0.972,1.675,1.993,�k��,11.0,��
2015/02/01,12:50,1.610,2.820,2.838,2.792,2.790,0.972,1.675,1.998,�k��,11.9,��
2015/02/01,13:00,1.610,2.823,2.845,2.797,2.800,0.973,1.673,1.997,�k��,11.6,��
2015/02/01,13:10,1.610,2.825,2.850,2.795,2.807,0.975,1.677,1.998,�k��,10.7,��
2015/02/01,13:20,1.612,2.827,2.850,2.792,2.815,0.977,1.675,1.997,�k��,8.2,��
2015/02/01,13:30,1.612,2.828,2.853,2.793,2.817,0.977,1.675,2.002,�k��,8.9,��
2015/02/01,13:40,1.610,2.830,2.853,2.797,2.822,0.977,1.677,2.002,�k�k��,8.8,��
2015/02/01,13:50,1.610,2.835,2.858,2.795,2.828,0.977,1.678,2.002,�k�k��,9.4,��
2015/02/01,14:00,1.612,2.837,2.862,2.798,2.833,0.980,1.678,2.003,�k�k��,7.5,��
2015/02/01,14:10,1.612,2.842,2.862,2.800,2.835,0.977,1.678,2.002,�k�k��,9.3,��
2015/02/01,14:20,1.612,2.842,2.865,2.798,2.838,0.978,1.682,2.003,�k��,9.9,��
2015/02/01,14:30,1.615,2.843,2.863,2.797,2.840,0.978,1.682,2.003,�k��,7.7,��
2015/02/01,14:40,1.618,2.843,2.867,2.803,2.843,0.980,1.682,2.008,�k��,7.8,��
2015/02/01,14:50,1.613,2.850,2.868,2.803,2.848,0.978,1.682,2.007,�k��,10.1,��
2015/02/01,15:00,1.617,2.850,2.872,2.805,2.850,0.980,1.680,2.008,�k��,10.1,��
2015/02/01,15:10,1.618,2.847,2.870,2.803,2.853,0.980,1.683,2.008,�k��,10.7,��
2015/02/01,15:20,1.615,2.848,2.873,2.807,2.853,0.980,1.682,2.008,�k��,11.9,��
2015/02/01,15:30,1.617,2.852,2.875,2.803,2.852,0.982,1.682,2.010,�k��,11.0,��
2015/02/01,15:40,1.618,2.853,2.877,2.807,2.855,0.980,1.682,2.010,�k��,12.3,��
2015/02/01,15:50,1.617,2.858,2.877,2.807,2.858,0.978,1.682,2.010,���k��,10.7,��
2015/02/01,16:00,1.617,2.857,2.878,2.810,2.858,0.980,1.682,2.012,���k��,10.8,��
2015/02/01,16:10,1.617,2.858,2.873,2.805,2.858,0.978,1.682,2.012,���k��,8.3,��
2015/02/01,16:20,1.618,2.860,2.878,2.810,2.862,0.982,1.683,2.012,���k��,7.0,��
2015/02/01,16:30,1.622,2.857,2.882,2.810,2.863,0.985,1.682,2.010,���k��,6.1,��
2015/02/01,16:40,1.620,2.862,2.880,2.810,2.865,0.983,1.683,2.012,���k��,5.6,��
2015/02/01,16:50,1.618,2.863,2.878,2.807,2.863,0.982,1.687,2.015,���k��,5.8,��
2015/02/01,17:00,1.620,2.862,2.883,2.807,2.862,0.980,1.683,2.013,��,4.4,��
2015/02/01,17:10,1.618,2.860,2.885,2.810,2.863,0.980,1.683,2.013,���k��,6.6,��
2015/02/01,17:20,1.623,2.865,2.883,2.808,2.865,0.982,1.680,2.017,�k��,3.6,��
2015/02/01,17:30,1.623,2.867,2.882,2.812,2.865,0.982,1.680,2.013,���k��,5.3,��
2015/02/01,17:40,1.622,2.868,2.885,2.815,2.867,0.983,1.683,2.013,���k��,5.2,��
2015/02/01,17:50,1.618,2.872,2.882,2.815,2.867,0.982,1.682,2.013,���k��,6.7,��
2015/02/01,18:00,1.625,2.870,2.887,2.812,2.868,0.985,1.682,2.015,���k��,6.0,��
2015/02/01,18:10,1.623,2.873,2.885,2.813,2.867,0.983,1.682,2.013,���k��,7.0,��
2015/02/01,18:20,1.623,2.867,2.887,2.810,2.870,0.983,1.685,2.015,���k��,4.1,��
2015/02/01,18:30,1.622,2.870,2.888,2.815,2.875,0.982,1.678,2.017,���k��,5.8,��
2015/02/01,18:40,1.625,2.868,2.885,2.815,2.877,0.983,1.683,2.013,���k��,5.8,��
2015/02/01,18:50,1.625,2.870,2.887,2.813,2.868,0.982,1.683,2.013,���k��,6.0,��
2015/02/01,19:00,1.623,2.872,2.890,2.812,2.872,0.982,1.683,2.017,���k��,5.9,��
2015/02/01,19:10,1.627,2.870,2.885,2.813,2.873,0.982,1.685,2.017,���k��,5.9,��
2015/02/01,19:20,1.625,2.867,2.888,2.813,2.873,0.982,1.685,2.015,���k��,4.8,��
2015/02/01,19:30,1.627,2.875,2.888,2.818,2.873,0.983,1.685,2.017,���k��,6.0,��
2015/02/01,19:40,1.627,2.873,2.888,2.818,2.877,0.982,1.685,2.018,���k��,6.6,��
2015/02/01,19:50,1.627,2.872,2.885,2.817,2.880,0.980,1.683,2.017,���k��,6.3,��
2015/02/01,20:00,1.628,2.870,2.888,2.815,2.880,0.982,1.683,2.013,���k��,8.3,��
2015/02/01,20:10,1.628,2.875,2.890,2.817,2.877,0.983,1.685,2.017,���k��,6.0,��
2015/02/01,20:20,1.630,2.875,2.892,2.818,2.875,0.982,1.685,2.013,���k��,7.4,��
2015/02/01,20:30,1.628,2.873,2.892,2.820,2.877,0.983,1.687,2.015,���k��,6.5,��
2015/02/01,20:40,1.628,2.877,2.892,2.820,2.877,0.983,1.683,2.018,���k��,5.6,��
2015/02/01,20:50,1.628,2.878,2.893,2.820,2.875,0.983,1.685,2.017,���k��,6.6,��
2015/02/01,21:00,1.628,2.877,2.892,2.823,2.882,0.985,1.685,2.015,���k��,5.0,��
2015/02/01,21:10,1.628,2.877,2.892,2.823,2.878,0.983,1.688,2.015,���k��,4.9,��
2015/02/01,21:20,1.628,2.880,2.892,2.823,2.883,0.982,1.687,2.017,���k��,3.9,��
2015/02/01,21:30,1.628,2.877,2.890,2.822,2.883,0.983,1.685,2.018,���k��,3.7,��
2015/02/01,21:40,1.627,2.877,2.895,2.822,2.883,0.985,1.683,2.017,���쐼,3.4,��
2015/02/01,21:50,1.628,2.875,2.892,2.820,2.887,0.983,1.685,2.017,���k��,2.2,��
2015/02/01,22:00,1.632,2.875,2.888,2.818,2.887,0.983,1.683,2.017,��,3.1,��
2015/02/01,22:10,1.628,2.878,2.888,2.823,2.887,0.983,1.687,2.015,���쐼,1.6,��
2015/02/01,22:20,1.628,2.877,2.892,2.820,2.887,0.985,1.685,2.015,�쐼,2.2,��
2015/02/01,22:30,1.630,2.877,2.892,2.820,2.887,0.983,1.687,2.013,�쐼,2.6,��
2015/02/01,22:40,1.633,2.873,2.892,2.820,2.887,0.983,1.687,2.013,�쐼,2.9,��
2015/02/01,22:50,1.633,2.878,2.888,2.818,2.890,0.983,1.685,2.018,��쐼,2.1,��
2015/02/01,23:00,1.630,2.882,2.890,2.822,2.885,0.982,1.687,2.017,��쐼,2.6,��
2015/02/01,23:10,1.628,2.878,2.890,2.823,2.890,0.983,1.685,2.015,��쐼,1.9,��
2015/02/01,23:20,1.628,2.880,2.890,2.823,2.888,0.982,1.685,2.017,��쐼,1.8,��
2015/02/01,23:30,1.632,2.878,2.893,2.825,2.892,0.985,1.685,2.018,��,1.9,��
2015/02/01,23:40,1.632,2.877,2.890,2.820,2.888,0.985,1.685,2.017,��쐼,1.4,��
2015/02/01,23:50,1.630,2.880,2.888,2.817,2.890,0.982,1.685,2.017,��쐼,2.0,��
